Hagerstown, MD

4:13 PM EDT on September 19, 2017 (GMT -0400)
Hagerstown Regional-Henson

Weather History for KHGR - May, 2013

Change the Weather History Date:

Thursday, May 2, 2013

  Actual Average Record
Temperature  
Mean Temperature 57 °F 58 °F  
Max Temperature 70 °F 68 °F 86 °F (2002)
Min Temperature 44 °F 48 °F 41 °F (1999)
Degree Days  
Heating Degree Days 8 8  
Month to date heating degree days 13 16  
Since 1 July heating degree days 4797 5030  
Cooling Degree Days 0 1  
Month to date cooling degree days 0 2  
Year to date cooling degree days 26 17  
Growing Degree Days 8 (Base 50)    
Moisture  
Dew Point 42 °F    
Average Humidity 62    
Maximum Humidity 92    
Minimum Humidity 32    
Precipitation  
Precipitation 0.00 in 0.11 in 1.06 in (2004)
Month to date precipitation 0.00 0.21  
Year to date precipitation 7.96 12.38  
Sea Level Pressure  
Sea Level Pressure 30.41 in    
Wind  
Wind Speed 4 mph (ESE)    
Max Wind Speed 10 mph    
Max Gust Speed 16 mph    
Visibility 10 miles    
Events      
T = Trace of Precipitation, MM = Missing Value Source: NWS Daily Summary

Daily Weather History Graph

Daily Weather History Graph

Search for Another Location

Airport or City:

Trip Planner

Search our weather history database for the weather conditions in past years. The results will help you decide how hot, cold, wet, or windy it might be!

Date:

Astronomy

May. 02, 2013 Rise Set
Actual Time 6:10 AM EDT 8:06 PM EDT
Civil Twilight 5:40 AM EDT 8:35 PM EDT
Nautical Twilight 5:05 AM EDT 9:11 PM EDT
Astronomical Twilight 4:26 AM EDT 9:50 PM EDT
Moon 1:54 AM EDT (5/2) 12:54 PM EDT (5/2)
Length of Visible Light 14h 54m
Length of Day
13h 56m
Waning Gibbous, 48% of the Moon is Illuminated
May 2
Waning Gibbous
May 9
New
May 18
First Quarter
May 25
Full
May 31
Last Quarter

Hourly Weather History & Observations

Time (EDT) Temp. Windchill Dew Point Humidity Pressure Visibility Wind Dir Wind Speed Gust Speed Precip Events Conditions
12:53 AM 53.1 °F - 44.1 °F 71% 30.45 in 10.0 mi SE 4.6 mph - N/A   Clear
1:53 AM 52.0 °F - 43.0 °F 71% 30.45 in 10.0 mi Calm Calm - N/A   Clear
2:53 AM 52.0 °F - 42.1 °F 69% 30.43 in 10.0 mi Calm Calm - N/A   Clear
3:53 AM 50.0 °F - 43.0 °F 77% 30.43 in 10.0 mi NNE 3.5 mph - N/A   Clear
4:53 AM 48.9 °F - 42.1 °F 77% 30.43 in 10.0 mi Calm Calm - N/A   Clear
5:53 AM 46.0 °F 44.8 °F 42.1 °F 86% 30.43 in 10.0 mi East 3.5 mph - N/A   Clear
6:53 AM 45.0 °F 43.5 °F 42.1 °F 90% 30.45 in 10.0 mi East 3.5 mph - N/A   Clear
7:53 AM 50.0 °F - 43.0 °F 77% 30.45 in 10.0 mi Calm Calm - N/A   Clear
8:53 AM 54.0 °F - 43.0 °F 66% 30.47 in 10.0 mi East 6.9 mph - N/A   Clear
9:53 AM 55.9 °F - 43.0 °F 62% 30.46 in 10.0 mi ENE 8.1 mph - N/A   Clear
10:53 AM 59.0 °F - 44.1 °F 58% 30.46 in 10.0 mi Variable 4.6 mph - N/A   Clear
11:53 AM 61.0 °F - 43.0 °F 52% 30.45 in 10.0 mi Variable 4.6 mph - N/A   Clear
12:53 PM 64.9 °F - 42.1 °F 43% 30.43 in 10.0 mi ENE 5.8 mph - N/A   Clear
1:53 PM 68.0 °F - 43.0 °F 40% 30.41 in 10.0 mi Variable 5.8 mph - N/A   Clear
2:53 PM 68.0 °F - 37.9 °F 33% 30.40 in 10.0 mi Variable 5.8 mph - N/A   Clear
3:53 PM 69.1 °F - 39.0 °F 33% 30.38 in 10.0 mi ESE 8.1 mph - N/A   Clear
4:53 PM 70.0 °F - 41.0 °F 35% 30.36 in 10.0 mi ESE 8.1 mph - N/A   Clear
5:53 PM 69.1 °F - 39.0 °F 33% 30.36 in 10.0 mi ESE 5.8 mph - N/A   Clear
6:53 PM 69.1 °F - 39.9 °F 35% 30.35 in 10.0 mi East 8.1 mph - N/A   Clear
7:53 PM 64.9 °F - 39.0 °F 39% 30.35 in 10.0 mi SE 6.9 mph - N/A   Clear
8:53 PM 62.1 °F - 44.1 °F 52% 30.35 in 10.0 mi SE 6.9 mph - N/A   Clear
9:53 PM 60.1 °F - 44.1 °F 55% 30.35 in 10.0 mi SSE 3.5 mph - N/A   Clear
10:53 PM 59.0 °F - 44.1 °F 58% 30.35 in 10.0 mi ESE 3.5 mph - N/A   Clear
11:53 PM 57.0 °F - 44.1 °F 62% 30.35 in 10.0 mi Calm Calm - N/A   Clear